Weather reports worldwide

Advertisment
Shoeburyness Landwick, United Kingdom (3693): temperature & dewpoint: 10.06.2019 12:00:00 - 16.06.2019 12:00:00 (BST)Shoeburyness Landwick, United Kingdom (3693): temperature -20cm & temperature -100cm: 10.06.2019 12:00:00 - 16.06.2019 12:00:00 (BST)Shoeburyness Landwick, United Kingdom (3693): wind speed & gusts: 10.06.2019 12:00:00 - 16.06.2019 12:00:00 (BST)Shoeburyness Landwick, United Kingdom (3693): wind direction: 10.06.2019 12:00:00 - 16.06.2019 12:00:00 (BST)Shoeburyness Landwick, United Kingdom (3693): reduced air pressure: 10.06.2019 12:00:00 - 16.06.2019 12:00:00 (BST)Shoeburyness Landwick, United Kingdom (3693): visibility: 10.06.2019 12:00:00 - 16.06.2019 12:00:00 (BST)Shoeburyness Landwick, United Kingdom (3693): sunshine duration: 10.06.2019 12:00:00 - 16.06.2019 12:00:00 (BST)Shoeburyness Landwick, United Kingdom (3693): precipitation: 10.06.2019 12:00:00 - 16.06.2019 12:00:00 (BST)
Date & Time tt [°C] td [°C] tt -20cm [°C] tt -100cm [°C] ff [km/h] ff [kn] fx [km/h] fx [kn] dd ppp [hPa] vv [km] sd [min] rr [mm]
16.06.2019 12:00:00 17,9 12,4 - - 26 14 - - SW 1017,2 30 12 0,0
16.06.2019 11:00:00 17,4 13,2 - - 31 17 46 25 SW 1017,4 30 12 0,0
16.06.2019 10:00:00 15,9 11,3 16,5 14,4 26 14 - - SSW 1017,2 40 6 0,0
16.06.2019 09:00:00 15,7 12,0 - - 22 12 - - SSW 1017,0 45 18 0,0
16.06.2019 08:00:00 14,7 11,9 - - 24 13 - - SW 1017,1 45 60 0,0
16.06.2019 07:00:00 13,7 11,5 - - 18 10 - - SSW 1016,6 29 60 0,0
16.06.2019 06:00:00 12,3 10,5 - - 13 7 - - SW 1016,2 30 42 0,0
16.06.2019 05:00:00 11,8 10,3 - - 11 6 - - WSW 1016,1 16 0 0,0
16.06.2019 04:00:00 12,1 10,5 - - 9 5 - - WSW 1015,8 29 0 0,0
16.06.2019 03:00:00 12,6 10,7 - - 15 8 - - SW 1015,7 35 0 0,0
16.06.2019 02:00:00 12,9 11,2 - - 15 8 - - WSW 1015,3 35 0 0,0
16.06.2019 01:00:00 13,7 11,6 - - 15 8 - - WSW 1015,3 45 - 0,0
16.06.2019 00:00:00 13,8 11,3 - - 16 9 - - SW 1014,8 50 0 0,0
15.06.2019 23:00:00 14,1 11,8 - - 15 8 - - SW 1014,6 50 0 0,0
15.06.2019 22:00:00 14,4 12,4 - - 15 8 - - SW 1014,5 50 0 0,0
15.06.2019 21:00:00 14,1 12,3 - - 18 10 - - SSW 1014,2 45 0 0,0
15.06.2019 20:00:00 15,1 11,5 - - 24 13 - - SW 1014,1 50 0 0,0
15.06.2019 19:00:00 16,4 11,0 - - 29 16 - - SW 1014,0 50 24 0,0
15.06.2019 18:00:00 17,5 10,7 - - 24 13 - - SW 1013,7 45 24 0,0
15.06.2019 17:00:00 17,9 10,3 - - 29 16 48 26 SW 1013,7 45 36 0,0
15.06.2019 16:00:00 18,0 9,4 - - 29 16 - - SW 1013,8 50 12 0,0
15.06.2019 15:00:00 19,6 9,3 - - 28 15 - - SW 1013,5 50 60 0,0
15.06.2019 14:00:00 19,9 9,5 - - 28 15 - - SW 1013,5 45 48 0,0
15.06.2019 13:00:00 18,7 10,3 - - 26 14 - - S 1013,6 45 30 0,0
15.06.2019 12:00:00 17,9 11,0 - - 21 11 - - SSW 1013,3 35 6 0,0
15.06.2019 11:00:00 18,1 13,5 - - 11 6 - - SE 1013,2 20 42 0,0
15.06.2019 10:00:00 16,6 10,5 16,2 14,4 13 7 - - SSW 1013,4 40 54 0,0
15.06.2019 09:00:00 15,2 9,9 - - 11 6 - - SW 1013,3 40 0 0,0
15.06.2019 08:00:00 14,6 10,1 - - 9 5 - - WSW 1012,9 21 0 0,0
15.06.2019 07:00:00 13,7 10,1 - - 5 3 - - SW 1012,7 45 0 0,0
15.06.2019 06:00:00 13,7 9,8 - - 4 2 - - SW 1012,7 45 0 0,0
15.06.2019 05:00:00 12,7 10,4 - - 0 0 - - N 1012,6 35 0 0,0
15.06.2019 04:00:00 13,1 9,7 - - 8 4 - - W 1012,1 50 0 0,0
15.06.2019 03:00:00 12,1 10,3 - - 5 3 - - WNW 1012,0 45 0 0,0
15.06.2019 02:00:00 13,6 10,5 - - 4 2 - - S 1012,2 45 0 0,0
15.06.2019 01:00:00 13,9 10,9 - - 9 5 - - SSW 1012,4 40 - 0,0
15.06.2019 00:00:00 14,7 10,2 - - 9 5 - - SSW 1012,7 50 0 0,0
14.06.2019 23:00:00 14,7 10,3 - - 9 5 - - SSW 1012,8 45 0 0,0
14.06.2019 22:00:00 15,2 10,7 - - 11 6 - - SSW 1012,8 50 0 0,0
14.06.2019 21:00:00 15,5 10,5 - - 13 7 - - SSW 1012,3 45 54 0,0
14.06.2019 20:00:00 17,7 8,9 - - 15 8 - - SW 1012,0 50 60 0,0
14.06.2019 19:00:00 18,4 9,9 - - 18 10 - - SW 1011,9 35 60 0,0
14.06.2019 18:00:00 18,5 9,7 - - 22 12 - - SSW 1011,6 50 42 0,0
14.06.2019 17:00:00 18,8 10,2 - - 28 15 - - SSW 1011,8 50 36 0,0
14.06.2019 16:00:00 18,5 11,3 - - 29 16 - - S 1012,0 45 42 0,0
14.06.2019 15:00:00 18,9 10,4 - - 29 16 - - SSW 1011,9 35 60 0,0
14.06.2019 14:00:00 18,4 10,6 - - 31 17 - - SSW 1011,9 40 60 0,0
14.06.2019 13:00:00 18,8 11,0 - - 29 16 - - SSW 1011,5 24 60 0,0
14.06.2019 12:00:00 17,9 10,4 - - 26 14 - - SW 1011,2 45 30 0,0
14.06.2019 11:00:00 18,2 10,1 - - 28 15 - - SSW 1010,8 35 60 0,0
14.06.2019 10:00:00 17,3 10,8 15,7 14,4 26 14 - - SSW 1010,8 40 54 0,0
14.06.2019 09:00:00 16,0 11,2 - - 24 13 - - SSW 1010,7 35 42 0,0
14.06.2019 08:00:00 15,1 11,5 - - 24 13 - - SSW 1010,4 35 48 0,0
14.06.2019 07:00:00 13,9 11,2 - - 26 14 - - SSW 1010,0 35 12 0,0
14.06.2019 06:00:00 13,0 10,8 - - 28 15 - - S 1009,7 45 0 0,0
14.06.2019 05:00:00 12,9 10,7 - - 24 13 - - SSW 1009,4 35 0 0,0
14.06.2019 04:00:00 13,0 10,9 - - 18 10 - - SSW 1009,3 30 0 0,0
14.06.2019 03:00:00 13,0 10,9 - - 22 12 - - SSW 1009,0 30 0 0,0
14.06.2019 02:00:00 13,3 11,1 - - 21 11 - - SSW 1009,2 35 0 0,0
14.06.2019 01:00:00 13,3 11,1 - - 21 11 - - SW 1009,2 29 - 0,0
14.06.2019 00:00:00 13,4 11,1 - - 22 12 - - SW 1009,0 30 0 0,0
13.06.2019 23:00:00 13,1 11,4 - - 28 15 - - SW 1008,8 24 0 0,0
13.06.2019 22:00:00 13,8 10,7 - - 26 14 46 25 SW 1008,3 40 0 0,0
13.06.2019 21:00:00 13,9 10,3 - - 31 17 46 25 SSW 1007,5 40 0 0,0
13.06.2019 20:00:00 14,4 10,2 - - 28 15 50 27 SSW 1006,9 50 0 0,0
13.06.2019 19:00:00 14,9 9,9 - - 29 16 48 26 SW 1006,4 40 12 0,0
13.06.2019 18:00:00 15,2 9,6 - - 31 17 52 28 SW 1006,1 40 0 0,0
13.06.2019 17:00:00 15,1 8,5 - - 28 15 52 28 SW 1006,3 45 0 0,0
13.06.2019 16:00:00 15,7 9,1 - - 29 16 50 27 SW 1006,2 45 0 0,0
13.06.2019 15:00:00 15,1 9,7 - - 29 16 50 27 SSW 1006,2 50 6 0,0
13.06.2019 14:00:00 15,8 9,1 - - 35 19 52 28 SW 1006,1 40 24 0,0
13.06.2019 13:00:00 16,6 9,6 - - 34 18 50 27 SSW 1006,0 45 36 0,0
13.06.2019 12:00:00 15,8 10,3 - - 31 17 46 25 SSW 1006,1 35 6 0,0
13.06.2019 11:00:00 14,9 9,4 - - 31 17 - - SW 1006,1 45 0 0,0
13.06.2019 10:00:00 14,5 10,4 16,0 14,5 28 15 - - SW 1005,8 35 18 0,0
13.06.2019 09:00:00 13,9 10,8 - - 24 13 - - SSW 1005,8 45 42 0,0
13.06.2019 08:00:00 12,9 11,9 - - 21 11 - - SSW 1005,8 13 12 0,0
13.06.2019 07:00:00 12,2 11,1 - - 22 12 - - SSW 1005,8 8 0 0,0
13.06.2019 06:00:00 12,1 10,9 - - 16 9 - - SW 1005,8 8 0 0,0
13.06.2019 05:00:00 11,6 10,8 - - 13 7 - - SW 1005,8 5 0 0,0
13.06.2019 04:00:00 11,7 10,8 - - 13 7 - - SW 1005,7 4,8 0 0,0
13.06.2019 03:00:00 12,1 11,4 - - 11 6 - - SSW 1006,0 4,8 0 0,0
13.06.2019 02:00:00 12,5 11,6 - - 13 7 - - SW 1006,4 3,5 0 0,0
13.06.2019 01:00:00 12,1 11,4 - - 9 5 - - SW 1006,8 5 - 0,0
13.06.2019 00:00:00 12,4 11,3 - - 13 7 - - SSW 1007,2 27 0 0,0
12.06.2019 23:00:00 12,7 11,4 - - 13 7 - - S 1007,7 27 0 0,0
12.06.2019 22:00:00 12,9 11,6 - - 8 4 - - SSE 1008,0 50 0 0,0
12.06.2019 21:00:00 12,5 11,3 - - 9 5 - - ESE 1007,8 45 0 0,0
12.06.2019 20:00:00 12,8 11,6 - - 9 5 - - SE 1008,0 35 0 0,0
12.06.2019 19:00:00 13,1 11,7 - - 9 5 - - ESE 1008,1 40 0 0,0
12.06.2019 18:00:00 13,5 11,7 - - 5 3 - - ENE 1008,5 45 0 0,2
12.06.2019 17:00:00 13,3 12,2 - - 8 4 - - NE 1009,0 19 0 0,2
12.06.2019 16:00:00 12,8 11,4 - - 9 5 - - NE 1009,6 12 0 0,8
12.06.2019 15:00:00 12,5 10,8 - - 9 5 - - NE 1009,7 12 0 1,4
12.06.2019 14:00:00 12,3 10,7 - - 11 6 - - N 1009,6 10 0 1,6
12.06.2019 13:00:00 12,5 11,3 - - 9 5 - - NNE 1009,8 6 0 2,8
12.06.2019 12:00:00 12,9 11,6 - - 11 6 - - N 1010,0 8 0 0,6
12.06.2019 11:00:00 14,0 11,0 - - 9 5 - - NNE 1009,9 30 0 0,0
12.06.2019 10:00:00 14,0 11,0 16,7 14,4 8 4 - - N 1009,5 30 0 0,0
12.06.2019 09:00:00 13,4 11,2 - - 9 5 - - N 1009,7 40 0 0,0
12.06.2019 08:00:00 12,3 10,8 - - 11 6 - - N 1010,0 45 0 0,0
12.06.2019 07:00:00 11,3 10,5 - - 8 4 - - NNE 1010,3 16 0 0,0
12.06.2019 06:00:00 11,2 10,4 - - 11 6 - - N 1010,5 13 0 0,0
12.06.2019 05:00:00 11,5 10,7 - - 13 7 - - N 1010,6 11 0 0,0
12.06.2019 04:00:00 11,7 11,1 - - 11 6 - - N 1010,7 12 0 0,0
12.06.2019 03:00:00 11,7 11,3 - - 9 5 - - N 1011,0 13 0 0,0
12.06.2019 02:00:00 11,2 10,6 - - 11 6 - - NNW 1011,3 8 0 0,0
12.06.2019 01:00:00 12,3 11,2 - - 13 7 - - NNE 1011,5 12 - 0,0
12.06.2019 00:00:00 12,9 11,6 - - 13 7 - - N 1011,6 18 0 0,0
11.06.2019 23:00:00 12,4 11,5 - - 13 7 - - N 1012,3 14 0 0,0
11.06.2019 22:00:00 13,3 12,1 - - 15 8 - - N 1012,3 17 0 0,0
11.06.2019 21:00:00 13,4 12,1 - - 15 8 - - N 1011,9 17 12 0,0
11.06.2019 20:00:00 15,6 12,5 - - 18 10 - - NNW 1011,4 50 24 0,0
11.06.2019 19:00:00 17,1 12,0 - - 11 6 - - SSE 1011,2 35 48 0,0
11.06.2019 18:00:00 17,7 11,8 - - 16 9 - - SE 1011,2 45 60 0,0
11.06.2019 17:00:00 17,1 10,6 - - 18 10 - - SE 1011,5 45 60 0,0
11.06.2019 16:00:00 17,6 10,7 - - 16 9 - - SSE 1011,6 40 60 0,0
11.06.2019 15:00:00 18,4 11,8 - - 16 9 - - SSE 1011,7 30 54 0,0
11.06.2019 14:00:00 17,9 9,2 - - 11 6 - - W 1011,6 40 60 0,0
11.06.2019 13:00:00 16,6 8,4 - - 13 7 - - WSW 1011,8 50 60 0,0
11.06.2019 12:00:00 15,6 8,2 - - 13 7 - - WSW 1011,6 50 60 0,0
11.06.2019 11:00:00 15,2 9,7 - - 15 8 - - SW 1011,7 45 60 0,0
11.06.2019 10:00:00 14,1 9,4 15,2 14,5 15 8 - - S 1011,6 45 54 0,0
11.06.2019 09:00:00 12,9 8,3 - - 9 5 - - SW 1011,3 45 54 0,0
11.06.2019 08:00:00 12,6 9,4 - - 9 5 - - SW 1011,0 35 60 0,0
11.06.2019 07:00:00 11,3 8,5 - - 13 7 - - SW 1010,6 45 60 0,0
11.06.2019 06:00:00 10,6 8,8 - - 15 8 - - SSW 1010,4 50 18 0,0
11.06.2019 05:00:00 10,4 9,3 - - 13 7 - - SSW 1010,2 35 0 0,0
11.06.2019 04:00:00 10,5 10,0 - - 13 7 - - S 1009,8 10 0 0,0
11.06.2019 03:00:00 10,6 10,1 - - 13 7 - - S 1009,8 5 0 0,0
11.06.2019 02:00:00 11,3 10,8 - - 21 11 - - S 1009,4 4,8 0 0,0
11.06.2019 01:00:00 12,1 11,5 - - 11 6 - - S 1009,3 6 - 0,0
11.06.2019 00:00:00 12,8 12,3 - - 13 7 - - NNE 1009,4 8 0 0,0
10.06.2019 23:00:00 12,9 12,3 - - 18 10 - - NNE 1009,6 12 0 0,2
10.06.2019 22:00:00 13,0 12,3 - - 18 10 - - NNE 1010,0 7 0 0,0
10.06.2019 21:00:00 12,9 12,2 - - 24 13 - - NE 1009,9 8 0 0,0
10.06.2019 20:00:00 13,1 12,4 - - 22 12 - - NE 1010,1 9 0 2,4
10.06.2019 19:00:00 13,2 12,5 - - 22 12 - - NE 1010,5 6 0 1,4
10.06.2019 18:00:00 13,8 12,0 - - 22 12 - - NNE 1010,8 21 0 0,0
10.06.2019 17:00:00 14,0 12,1 - - 18 10 - - NNE 1011,3 25 0 0,0
10.06.2019 16:00:00 13,1 11,6 - - 24 13 - - NNE 1011,6 29 0 0,0
10.06.2019 15:00:00 12,6 11,0 - - 22 12 - - NNE 1012,4 35 0 0,0
10.06.2019 14:00:00 12,1 10,3 - - 29 16 - - NNE 1012,7 40 0 0,0
10.06.2019 13:00:00 11,6 10,1 - - 28 15 - - N 1013,6 35 0 0,0
10.06.2019 12:00:00 11,3 10,3 - - 26 14 - - N 1014,1 30 0 0,2

tt = temperature
td = dewpoint
tt -20cm = temperature -20cm
tt -100cm = temperature -100cm
ff = wind speed
fx = gusts
dd = wind direction
ppp = reduced air pressure
vv = visibility
sd = sunshine duration
rr = precipitation

Next stations